Regional Weather Roundup
Issued by NWS

Home | Current Version | Previous Version | Graphics & Text | Print | Product List | Glossary On
Versions: 1 2 3 4 5 6 7 8 9 10 11 12 13 14 15 16 17 18 19 20 21 22 23 24 25 26 27 28 29 30 31 32 33 34 35 36 37 38 39 40 41 42 43 44 45 46 47 48 49 50
000
ASUS45 KSLC 182310
RWRUT

UTAH REGIONAL WEATHER ROUNDUP
NATIONAL WEATHER SERVICE SALT LAKE CITY UT
500 PM MDT THU SEP 18 2014

UTZ001>011-023>025-190000-

NORTHERN UTAH

CITY           SKY/WX    TMP DP  RH WIND       PRES   REMARKS
HILL AFB       MOSUNNY   88  48  24 S12G20    29.83F
LOGAN          SUNNY     87  54  32 SW10      29.79F
OGDEN          SUNNY     88  46  23 S12       29.79F
PROVO AIRPORT  MOSUNNY   88  50  27 VRB5      29.83F
SALT LAKE CITY MOSUNNY   90  43  19 S17       29.77F
VERNAL         SUNNY     84  43  23 E3        29.91F
WENDOVER       MOSUNNY   91  48  22 SE10      29.74S
HEBER CITY     MOSUNNY   81  43  26 SW10G17   29.90S
WEST JORDAN    SUNNY     90  45  20 S13G18    29.82F

$$

UTZ012>022-026-027-190000-

SOUTHERN UTAH

CITY           SKY/WX    TMP DP  RH WIND       PRES   REMARKS
BRYCE CANYON   SUNNY     72  45  37 S14       30.12F
CEDAR CITY     SUNNY     81  48  31 SW16G24   29.93F
MILFORD        SUNNY     88  46  23 SW23      29.86F
MOAB/CYNLANDS  SUNNY     90  41  18 CALM      29.84F
PRICE          SUNNY     86  41  20 S15G21    29.96F
ST GEORGE      PTCLDY    93  55  27 NW10G17   29.76F HX  91
KANAB            N/A     86  46  25 S6        29.93S

$$

REGIONAL REPORTS     COLORADO/ARIZONA

CITY           SKY/WX    TMP DP  RH WIND       PRES   REMARKS
CRAIG, CO      PTSUNNY   84  37  18 VRB3      29.98F
GRAND JUNCTION SUNNY     86  46  24 W10       29.88F
RIFLE          SUNNY     86  36  16 W12       29.93F
MONTROSE       MOSUNNY   87  37  17 W14       29.97F
CORTEZ         SUNNY     83  39  21 SW9       29.99F
PAGE, AZ       SUNNY     89  47  23 N9        29.86F
GRAND CANYON   MOSUNNY   76  46  34 W5        30.06F
KINGMAN        SUNNY     89  49  25 W12       29.84F
FLAGSTAFF      PTSUNNY   70  54  56 W8        30.10S

$$

REGIONAL REPORTS    NEVADA/IDAHO/WYOMING

CITY           SKY/WX    TMP DP  RH WIND       PRES   REMARKS
LAS VEGAS, NV  MOSUNNY   97  32  10 SW20G28   29.67F HX  91
ELY            MOSUNNY   80  47  31 SW15G26   29.93F
ELKO           PTSUNNY   73  55  53 E9        29.86S
POCATELLO, ID  PTSUNNY   76  49  38 S15       29.88R THUNDER
BURLEY         LGT RAIN  72  51  47 S8        29.86R
EVANSTON, WY   SUNNY     80  39  23 SW20G25   30.01F
ROCK SPRINGS   MOSUNNY   82  33  17 S20G25    29.97F

$$


USA.gov is the U.S. government's official web portal to all federal, state and local government web resources and services.